This is the latest recevied weather packets stored in our database for station/object WL7CLI. If no packets are shown the sender has not sent any weather packets the latest 10 day(s).
| Time | Temp. | Humidity | Pressure | Rain* | Wind** | Luminosity | Snow |
|---|---|---|---|---|---|---|---|
| 1777588104 | 13.33° C | 38% | 1016.1 hPa | 0 mm | - | - | - |
| 1777587897 | 13.33° C | 37% | 1016.4 hPa | 0 mm | - | - | - |
| 1777587372 | 13.33° C | 39% | 1016.4 hPa | 0 mm | - | - | - |
| 1777586696 | 13.33° C | 40% | 1016.3 hPa | 0 mm | - | - | - |
| 1777586304 | 13.33° C | 43% | 1016.1 hPa | 0 mm | - | - | - |
| 1777586171 | 13.33° C | 41% | 1016.3 hPa | 0 mm | - | - | - |
| 1777585498 | 13.33° C | 43% | 1016.4 hPa | 0 mm | - | - | - |
| 1777584971 | 13.33° C | 44% | 1016.4 hPa | 0 mm | - | - | - |
| 1777584504 | 12.78° C | 46% | 1016.1 hPa | 0 mm | - | - | - |
| 1777584296 | 13.33° C | 46% | 1016.4 hPa | 0 mm | - | - | - |
| 1777583772 | 13.33° C | 46% | 1016.4 hPa | 0 mm | - | - | - |
| 1777583097 | 13.89° C | 47% | 1016.6 hPa | 0 mm | - | - | - |
| 1777582704 | 13.89° C | 49% | 1016.3 hPa | 0 mm | - | - | - |
| 1777582572 | 13.89° C | 52% | 1016.5 hPa | 0 mm | - | - | - |
| 1777581896 | 13.33° C | 50% | 1016.8 hPa | 0 mm | - | - | - |
| 1777581371 | 13.89° C | 50% | 1016.9 hPa | 0 mm | - | - | - |
| 1777581156 | 13.33° C | 51% | 1016.6 hPa | 0 mm | - | - | - |
| 1777580904 | 13.33° C | 51% | 1016.6 hPa | 0 mm | - | - | - |
| 1777580698 | 13.33° C | 50% | 1017 hPa | 0 mm | - | - | - |
| 1777580172 | 12.78° C | 57% | 1017 hPa | 0 mm | - | - | - |
| 1777579496 | 12.78° C | 57% | 1017 hPa | 0 mm | - | - | - |
| 1777579104 | 12.78° C | 59% | 1016.8 hPa | 0 mm | - | - | - |
| 1777578971 | 12.78° C | 61% | 1017.1 hPa | 0 mm | - | - | - |
| 1777578546 | 11.67° C | 60% | 1017.3 hPa | 0 mm | - | - | - |
| 1777578298 | 11.67° C | 60% | 1017.3 hPa | 0 mm | - | - | - |
* Rain latest hour (hover to see other rain measurements)
** Current wind speed in m/s (hover to see current wind gust speed)